Weather History for KTRK - October, 2013

Change the Weather History Date:

Tuesday, October 1, 2013

  Actual Average Record
Temperature  
Mean Temperature 49 °F -  
Max Temperature 66 °F 70 °F 84 °F (1987)
Min Temperature 32 °F 33 °F 15 °F (1971)
Degree Days  
Heating Degree Days 16    
Moisture  
Dew Point 30 °F    
Average Humidity 59    
Maximum Humidity 87    
Minimum Humidity 21    
Precipitation  
Precipitation 0.00 in - - ()
Sea Level Pressure  
Sea Level Pressure 30.10 in    
Wind  
Wind Speed 4 mph (SW)    
Max Wind Speed 17 mph    
Max Gust Speed 24 mph    
Visibility 10 miles    
Events      
Averages and records for this station are not official NWS values.
T = Trace of Precipitation, MM = Missing Value Source: NWS Daily Summary

Daily Weather History Graph

Daily Weather History Graph

Search for Another Location

Airport or City:

Trip Planner

Search our weather history database for the weather conditions in past years. The results will help you decide how hot, cold, wet, or windy it might be!

Date:

Astronomy

Oct. 01, 2013 Rise Set
Actual Time 6:56 AM PDT 6:42 PM PDT
Civil Twilight 6:30 AM PDT 7:09 PM PDT
Nautical Twilight 5:59 AM PDT 7:40 PM PDT
Astronomical Twilight 5:27 AM PDT 8:11 PM PDT
Moon 3:37 AM PDT (10/1) 4:48 PM PDT (10/1)
Length of Visible Light 12h 39m
Length of Day
11h 45m
Waning Crescent, 11% of the Moon is Illuminated
Oct 1
Waning Crescent
Oct 4
New
Oct 11
First Quarter
Oct 18
Full
Oct 26
Last Quarter

Hourly Weather History & Observations

Time (PDT) Temp. Windchill Dew Point Humidity Pressure Visibility Wind Dir Wind Speed Gust Speed Precip Events Conditions
12:15 AM 35.6 °F - 32.0 °F 87% 30.11 in 10.0 mi Calm Calm - N/A   Clear
12:35 AM 35.6 °F - 32.0 °F 87% 30.11 in 10.0 mi Calm Calm - N/A   Clear
12:55 AM 35.6 °F 32.8 °F 28.4 °F 75% 30.11 in 10.0 mi East 3.5 mph - N/A   Clear
1:15 AM 35.6 °F - 28.4 °F 75% 30.11 in 10.0 mi Calm Calm - N/A   Clear
1:35 AM 35.6 °F - 28.4 °F 75% 30.11 in 10.0 mi Calm Calm - N/A   Clear
1:55 AM 33.8 °F 30.8 °F 28.4 °F 81% 30.11 in 10.0 mi SSW 3.5 mph - N/A   Clear
2:15 AM 35.6 °F 32.8 °F 28.4 °F 75% 30.10 in 10.0 mi SW 3.5 mph - N/A   Clear
2:35 AM 35.6 °F 32.8 °F 28.4 °F 75% 30.10 in 10.0 mi WSW 3.5 mph - N/A   Clear
2:55 AM 37.4 °F - 30.2 °F 75% 30.09 in 10.0 mi Calm Calm - N/A   Clear
3:15 AM 39.2 °F 35.9 °F 32.0 °F 75% 30.09 in 10.0 mi WNW 4.6 mph - N/A   Clear
3:35 AM 39.2 °F 35.9 °F 32.0 °F 75% 30.09 in 10.0 mi West 4.6 mph - N/A   Clear
3:55 AM 41.0 °F 39.0 °F 32.0 °F 70% 30.09 in 10.0 mi WNW 3.5 mph - N/A   Clear
4:15 AM 41.0 °F 37.1 °F 32.0 °F 70% 30.09 in 10.0 mi West 5.8 mph - N/A   Clear
4:35 AM 46.4 °F 45.2 °F 35.6 °F 66% 30.09 in 10.0 mi WSW 3.5 mph - N/A   Clear
4:55 AM 46.4 °F 42.9 °F 35.6 °F 66% 30.09 in 10.0 mi South 6.9 mph - N/A   Clear
5:15 AM 42.8 °F 39.3 °F 33.8 °F 70% 30.08 in 10.0 mi SSW 5.8 mph - N/A   Clear
5:35 AM 46.4 °F 41.5 °F 35.6 °F 66% 30.08 in 10.0 mi SSW 10.4 mph - N/A   Clear
5:55 AM 44.6 °F 40.7 °F 33.8 °F 66% 30.08 in 10.0 mi SW 6.9 mph - N/A   Clear
6:15 AM 44.6 °F 42.2 °F 33.8 °F 66% 30.08 in 10.0 mi SW 4.6 mph - N/A   Clear
6:35 AM 44.6 °F - 35.6 °F 71% 30.08 in 10.0 mi Calm Calm - N/A   Clear
6:55 AM 37.4 °F 34.9 °F 32.0 °F 81% 30.09 in 10.0 mi North 3.5 mph - N/A   Scattered Clouds
7:55 AM 39.2 °F 37.0 °F 35.6 °F 87% 30.09 in 10.0 mi SE 3.5 mph - N/A   Scattered Clouds
8:45 AM 50.0 °F - 35.6 °F 58% 30.10 in 10.0 mi Calm Calm - N/A   Scattered Clouds
9:45 AM 59.0 °F - 32.0 °F 36% 30.10 in 10.0 mi South 11.5 mph 20.7 mph N/A   Scattered Clouds
10:45 AM 62.6 °F - 28.4 °F 27% 30.10 in 10.0 mi SW 11.5 mph 18.4 mph N/A   Scattered Clouds
11:45 AM 62.6 °F - 26.6 °F 26% 30.10 in 10.0 mi SW 17.3 mph 23.0 mph N/A   Scattered Clouds
12:45 PM 64.4 °F - 26.6 °F 24% 30.10 in 10.0 mi SW 13.8 mph 19.6 mph N/A   Scattered Clouds
1:55 PM 66.2 °F - 24.8 °F 21% 30.09 in 10.0 mi SSW 11.5 mph 24.2 mph N/A   Scattered Clouds
2:45 PM 66.2 °F - 24.8 °F 21% 30.09 in 10.0 mi South 12.7 mph 23.0 mph N/A   Scattered Clouds
3:50 PM 64.4 °F - 24.8 °F 22% 30.04 in 10.0 mi WSW 16.1 mph 21.9 mph N/A   Scattered Clouds
4:45 PM 62.6 °F - 24.8 °F 24% 30.09 in 10.0 mi WSW 8.1 mph 17.3 mph N/A   Scattered Clouds
5:45 PM 59.0 °F - 33.8 °F 39% 30.09 in 10.0 mi West 9.2 mph - N/A   Scattered Clouds
5:55 PM 59.0 °F - 32.0 °F 36% 30.09 in 10.0 mi West 9.2 mph - N/A   Clear
6:15 PM 57.2 °F - 33.8 °F 41% 30.10 in 10.0 mi West 8.1 mph - N/A   Clear
6:35 PM 55.4 °F - 33.8 °F 44% 30.09 in 10.0 mi WSW 6.9 mph - N/A   Clear
6:55 PM 53.6 °F - 32.0 °F 44% 30.09 in 10.0 mi Calm Calm - N/A   Clear
7:15 PM 53.6 °F - 32.0 °F 44% 30.10 in 10.0 mi North 4.6 mph - N/A   Clear
7:35 PM 51.8 °F - 33.8 °F 50% 30.10 in 10.0 mi NW 8.1 mph - N/A   Clear
7:55 PM 53.6 °F - 35.6 °F 51% 30.11 in 10.0 mi SE 4.6 mph - N/A   Clear
8:15 PM 44.6 °F 43.1 °F 28.4 °F 53% 30.11 in 10.0 mi SSE 3.5 mph - N/A   Clear
8:35 PM 44.6 °F 42.2 °F 26.6 °F 49% 30.12 in 10.0 mi South 4.6 mph - N/A   Clear
8:55 PM 41.0 °F - 26.6 °F 57% 30.12 in 10.0 mi Calm Calm - N/A   Clear
9:15 PM 42.8 °F 39.3 °F 28.4 °F 57% 30.12 in 10.0 mi WSW 5.8 mph - N/A   Clear
9:35 PM 37.4 °F 32.1 °F 26.6 °F 65% 30.12 in 10.0 mi South 6.9 mph - N/A   Clear
9:55 PM 42.8 °F 41.1 °F 26.6 °F 53% 30.12 in 10.0 mi SE 3.5 mph - N/A   Clear
10:15 PM 42.8 °F - 26.6 °F 53% 30.12 in 10.0 mi Calm Calm - N/A   Clear
10:35 PM 39.2 °F 37.0 °F 26.6 °F 61% 30.12 in 10.0 mi SE 3.5 mph - N/A   Clear
10:55 PM 35.6 °F - 26.6 °F 70% 30.12 in 10.0 mi Calm Calm - N/A   Clear
11:15 PM 35.6 °F - 26.6 °F 70% 30.12 in 10.0 mi Calm Calm - N/A   Clear
11:35 PM 32.0 °F - 26.6 °F 80% 30.12 in 10.0 mi Calm Calm - N/A   Clear
11:55 PM 33.8 °F - 28.4 °F 81% 30.11 in 10.0 mi Calm Calm - N/A   Clear